Location: Atbuku
(36.4936°N, 30.4362°E)
Time: 09:06:41
(UTC+00:00)

IRS-P3 - Pass Details

Date: 22 March 2026
Orbit: 810 x 816 km, 99.0° (Epoch: 20 April)

Event Time Altitude Azimuth Distance (km) Brightness Sun altitude
Rises 17:26:28 0° 204° (SSW) 3,327 7.4 -15.7°
Reaches altitude 10° 17:29:30 10° 222° (SW) 2,400 6.9 -16.3°
Maximum altitude 17:33:09 19° 266° (W) 1,867 6.9 -17.0°
Drops below altitude 10° 17:36:49 10° 310° (NW) 2,409 7.6 -17.7°
Sets 17:39:53 0° 328° (NNW) 3,345 8.1 -18.3°
